Change the Weather History Date:

Thursday, September 19, 2013

  Actual Average Record
Temperature  
Mean Temperature 62 °F -  
Max Temperature 77 °F 79 °F 87 °F (1956)
Min Temperature 46 °F 43 °F 27 °F (2006)
Degree Days  
Heating Degree Days 4    
Growing Degree Days 12 (Base 50)    
Moisture  
Dew Point 46 °F    
Average Humidity 62    
Maximum Humidity 97    
Minimum Humidity 24    
Precipitation  
Precipitation 0.00 in - - ()
Sea Level Pressure  
Sea Level Pressure 30.15 in    
Wind  
Wind Speed 2 mph (NW)    
Max Wind Speed 8 mph    
Max Gust Speed -    
Visibility 10 miles    
Events Rain , Thunderstorm    
Averages and records for this station are not official NWS values.
T = Trace of Precipitation, MM = Missing Value Source: NWS Daily Summary

Daily Weather History Graph

Daily Weather History Graph

Search for Another Location

Airport or City:

Trip Planner

Search our weather history database for the weather conditions in past years. The results will help you decide how hot, cold, wet, or windy it might be!

Date:

Astronomy

Sep. 19, 2013 Rise Set
Actual Time 6:57 AM MDT 7:12 PM MDT
Civil Twilight 6:32 AM MDT 7:37 PM MDT
Nautical Twilight 6:02 AM MDT 8:07 PM MDT
Astronomical Twilight 5:32 AM MDT 8:37 PM MDT
Moon 7:15 PM MDT (9/19) 7:08 AM MDT (9/19)
Length of Visible Light 13h 05m
Length of Day
12h 14m
Full, 100% of the Moon is Illuminated
Sep 19
Full
Sep 26
Last Quarter
Oct 4
New
Oct 11
First Quarter
Oct 18
Full

Hourly Weather History & Observations

Time (MDT) Temp. Dew Point Humidity Pressure Visibility Wind Dir Wind Speed Gust Speed Precip Events Conditions
12:15 AM 61.5 °F 54.5 °F 78% 30.11 in 10.0 mi SSW 6.9 mph - N/A Rain , Thunderstorm Thunderstorms and Rain
12:35 AM 60.4 °F 53.2 °F 77% 30.11 in 10.0 mi ESE 5.8 mph - N/A Thunderstorm Thunderstorm
12:55 AM 58.6 °F 54.1 °F 85% 30.12 in 10.0 mi Calm Calm - N/A   Mostly Cloudy
1:15 AM 58.8 °F 54.9 °F 87% 30.12 in 10.0 mi SSE 4.6 mph - N/A   Overcast
1:35 AM 59.2 °F 52.7 °F 79% 30.12 in 10.0 mi Calm Calm - N/A Thunderstorm Overcast
1:55 AM 55.8 °F 52.2 °F 88% 30.12 in 10.0 mi Calm Calm - N/A Thunderstorm Mostly Cloudy
2:15 AM 55.2 °F 52.2 °F 89% 30.12 in 10.0 mi Calm Calm - N/A Thunderstorm Scattered Clouds
2:35 AM 54.7 °F 51.1 °F 88% 30.12 in 10.0 mi Calm Calm - N/A Thunderstorm Clear
2:55 AM 55.4 °F 51.4 °F 87% 30.12 in 10.0 mi Calm Calm - N/A   Clear
3:15 AM 52.2 °F 50.0 °F 92% 30.12 in 10.0 mi Calm Calm - N/A   Clear
3:35 AM 52.5 °F 51.1 °F 95% 30.12 in 10.0 mi Calm Calm - N/A   Scattered Clouds
3:55 AM 51.3 °F 50.4 °F 97% 30.12 in 10.0 mi Calm Calm - N/A   Clear
4:15 AM 52.5 °F 50.7 °F 94% 30.12 in 10.0 mi Calm Calm - N/A   Mostly Cloudy
4:35 AM 52.7 °F 51.1 °F 94% 30.12 in 10.0 mi Calm Calm - N/A   Overcast
4:55 AM 51.4 °F 49.8 °F 94% 30.12 in 10.0 mi Calm Calm - N/A   Scattered Clouds
5:15 AM 50.9 °F 49.3 °F 94% 30.13 in 10.0 mi Calm Calm - N/A   Scattered Clouds
5:35 AM 51.6 °F 47.8 °F 87% 30.14 in 10.0 mi Calm Calm - N/A   Scattered Clouds
5:55 AM 49.6 °F 47.7 °F 93% 30.14 in 10.0 mi Calm Calm - N/A   Scattered Clouds
6:15 AM 47.8 °F 45.5 °F 92% 30.15 in 10.0 mi Calm Calm - N/A Thunderstorm Clear
6:35 AM 46.9 °F 45.1 °F 93% 30.15 in 10.0 mi North - - N/A   Clear
6:55 AM 47.5 °F 46.0 °F 95% 30.16 in 10.0 mi Calm Calm - N/A   Clear
7:15 AM 47.5 °F 46.0 °F 95% 30.17 in 10.0 mi Calm Calm - N/A   Clear
7:35 AM 48.2 °F 46.6 °F 94% 30.17 in 10.0 mi Calm Calm - N/A   Scattered Clouds
7:55 AM 50.5 °F 48.6 °F 93% 30.18 in 10.0 mi Calm Calm - N/A   Scattered Clouds
8:15 AM 53.4 °F 50.5 °F 90% 30.18 in 10.0 mi NNW 3.5 mph - N/A   Scattered Clouds
8:35 AM 55.2 °F 50.4 °F 84% 30.18 in 10.0 mi NNW 3.5 mph - N/A   Scattered Clouds
8:55 AM 56.7 °F 51.4 °F 83% 30.19 in 10.0 mi Calm Calm - N/A   Scattered Clouds
9:15 AM 58.3 °F 51.6 °F 78% 30.19 in 10.0 mi Calm Calm - N/A   Clear
9:35 AM 61.0 °F 50.2 °F 68% 30.19 in 10.0 mi NNW 3.5 mph - N/A   Clear
9:55 AM 63.0 °F 51.4 °F 66% 30.19 in 10.0 mi Calm Calm - N/A   Clear
10:15 AM 64.8 °F 46.8 °F 52% 30.19 in 10.0 mi Calm Calm - N/A   Clear
10:35 AM 66.4 °F 41.4 °F 40% 30.19 in 10.0 mi Calm Calm - N/A   Clear
10:55 AM 67.8 °F 41.0 °F 38% 30.19 in 10.0 mi Calm Calm - N/A   Clear
11:15 AM 70.0 °F 38.5 °F 32% 30.18 in 10.0 mi Calm Calm - N/A   Clear
11:35 AM 72.0 °F 33.1 °F 24% 30.18 in 10.0 mi North 3.5 mph - N/A   Clear
11:55 AM 73.0 °F 36.3 °F 26% 30.18 in 10.0 mi North 8.1 mph - N/A   Clear
12:15 PM 72.5 °F 35.2 °F 26% 30.18 in 10.0 mi North 3.5 mph - N/A   Clear
12:35 PM 73.4 °F 35.2 °F 25% 30.17 in 10.0 mi Calm Calm - N/A   Clear
12:55 PM 74.3 °F 41.0 °F 30% 30.17 in 10.0 mi NW 6.9 mph - N/A   Clear
1:15 PM 74.7 °F 39.0 °F 28% 30.16 in 10.0 mi NW 3.5 mph - N/A   Clear
1:35 PM 74.1 °F 37.0 °F 26% 30.16 in 10.0 mi Calm Calm - N/A   Clear
1:55 PM 75.2 °F 39.4 °F 27% 30.15 in 10.0 mi Calm Calm - N/A   Clear
2:15 PM 75.7 °F 39.9 °F 28% 30.14 in 10.0 mi WNW 8.1 mph - N/A   Clear
2:35 PM 75.9 °F 38.8 °F 26% 30.14 in 10.0 mi NW 6.9 mph - N/A   Clear
2:55 PM 76.3 °F 39.4 °F 26% 30.14 in 10.0 mi North 3.5 mph - N/A   Clear
3:15 PM 76.5 °F 37.4 °F 24% 30.13 in 10.0 mi Calm Calm - N/A   Clear
3:35 PM 77.4 °F 40.3 °F 26% 30.12 in 10.0 mi West 5.8 mph - N/A   Scattered Clouds
3:55 PM 74.3 °F 41.7 °F 31% 30.12 in 10.0 mi NW 4.6 mph - N/A   Mostly Cloudy
4:15 PM 75.4 °F 40.1 °F 28% 30.12 in 10.0 mi Calm Calm - N/A   Scattered Clouds
4:35 PM 74.7 °F 38.3 °F 27% 30.11 in 10.0 mi NNW 4.6 mph - N/A   Clear
4:55 PM 75.4 °F 39.4 °F 27% 30.11 in 10.0 mi NNW 3.5 mph - N/A   Clear
5:15 PM 74.7 °F 38.8 °F 27% 30.11 in 10.0 mi North 3.5 mph - N/A   Clear
5:35 PM 72.3 °F 43.9 °F 36% 30.11 in 10.0 mi Calm Calm - N/A   Clear
5:55 PM 73.2 °F 41.0 °F 31% 30.11 in 10.0 mi Calm Calm - N/A   Mostly Cloudy
6:15 PM 70.5 °F 45.9 °F 41% 30.11 in 10.0 mi Calm Calm - N/A   Scattered Clouds
6:35 PM 72.0 °F 44.6 °F 37% 30.10 in 10.0 mi Calm Calm - N/A   Scattered Clouds
6:55 PM 68.0 °F 48.2 °F 49% 30.11 in 10.0 mi Calm Calm - N/A   Scattered Clouds
7:15 PM 66.2 °F 48.9 °F 54% 30.11 in 10.0 mi Calm Calm - N/A   Scattered Clouds
7:35 PM 63.9 °F 48.2 °F 57% 30.11 in 10.0 mi WSW 5.8 mph - N/A   Scattered Clouds
7:55 PM 63.1 °F 46.0 °F 54% 30.12 in 10.0 mi Calm Calm - N/A   Clear
8:15 PM 59.9 °F 48.2 °F 65% 30.12 in 10.0 mi WSW 3.5 mph - N/A   Clear
8:35 PM 60.4 °F 46.6 °F 60% 30.14 in 10.0 mi Calm Calm - N/A   Clear
8:55 PM 57.2 °F 47.1 °F 69% 30.15 in 10.0 mi SW 4.6 mph - N/A   Clear
9:15 PM 59.2 °F 46.4 °F 63% 30.15 in 10.0 mi Calm Calm - N/A   Scattered Clouds
9:35 PM 59.2 °F 46.6 °F 63% 30.17 in 10.0 mi NW 5.8 mph - N/A   Scattered Clouds
9:55 PM 56.8 °F 46.8 °F 69% 30.17 in 10.0 mi NNE 3.5 mph - N/A   Clear
10:15 PM 58.5 °F 45.5 °F 62% 30.18 in 10.0 mi Calm Calm - N/A   Clear
10:35 PM 56.5 °F 45.5 °F 67% 30.18 in 10.0 mi Calm Calm - N/A   Clear
10:55 PM 53.6 °F 46.8 °F 78% 30.18 in 10.0 mi West 6.9 mph - N/A   Clear
11:15 PM 54.5 °F 44.8 °F 70% 30.18 in 10.0 mi West 6.9 mph - N/A   Clear
11:35 PM 52.7 °F 45.5 °F 76% 30.18 in 10.0 mi NNW 4.6 mph - N/A   Clear
11:55 PM 53.1 °F 46.0 °F 77% 30.18 in 10.0 mi WNW 3.5 mph - N/A   Clear